CAPE
0 0 0 0 0 0 0 0 0 0 0 0 0 0 0 0 0 0 0 130 0 0 0 1 32 96 308 325 0 0 412 1147 1779 1048 465 598 583 608 638 678 697 928 1036 1612 1892 2214 2303 2037 1865 1825 1808 1858 2098 2140 2114 2032 2000 2352 3026 3676 3997 4250 4252 4020 3706 3545 3440 3399 3524 3606 3543 3402 3261 3143 2991 2764 2827 2957 2949 2906 2752 2619 2496 2260 2091 1925 1754
0 0 0 0 0 0 0 0 0 0 0 0 0 0 0 0 0 0 0 0 151 24 0 0 36 107 267 256 221 11 157 1027 1627 1287 1110 985 723 692 539 581 675 1041 1067 1086 1251 1956 2619 2328 2144 2243 2235 2184 2197 2285 2291 2220 2155 2338 2955 3613 3892 4151 4277 4104 3822 3583 3485 3427 3505 3642 3658 3540 3388 3308 3159 2925 2932 3043 2986 2897 2794 2665 2534 2412 2222 2024 1852
0 0 0 0 0 0 0 0 0 0 0 0 0 0 0 0 0 0 0 0 0 4 0 0 3 142 232 34 99 142 11 882 2078 1661 1669 1982 1324 2016 2480 1972 1368 1241 1254 1272 1767 2275 2698 2632 2340 2372 2562 2565 2560 2596 2595 2546 2425 2490 2883 3424 3707 3862 4165 4138 3911 3616 3518 3470 3494 3604 3702 3690 3554 3464 3388 3143 2984 3148 3112 2958 2802 2709 2600 2489 2370 2210 2045
0 0 0 0 0 0 0 0 0 0 0 0 0 0 0 0 0 0 0 0 0 0 0 0 0 114 18 46 42 83 138 280 1614 2377 2302 2817 2774 2782 3036 2784 2455 1834 1816 2945 3236 2904 3021 2916 2574 2439 2658 2798 2825 2843 2873 2821 2695 2578 2805 3183 3461 3550 3855 4169 4043 3798 3662 3598 3542 3562 3686 3776 3712 3592 3508 3342 3098 3186 3266 3146 2942 2757 2681 2600 2513 2399 2285
0 1 0 0 0 0 0 0 0 0 0 0 0 0 0 0 0 0 0 0 0 0 0 0 0 6 15 34 23 16 254 419 227 1606 2489 2591 2588 2610 2818 2762 2706 2565 2566 3521 4349 3662 3303 3365 3026 2660 2640 2851 2936 2944 2924 2961 2888 2762 2728 2945 3199 3302 3504 4157 4199 4020 3843 3786 3687 3623 3660 3793 3839 3733 3604 3445 3250 3224 3371 3322 3199 3043 2850 2763 2694 2620 2537
0 0 2 6 0 0 0 0 0 0 0 0 0 0 0 0 0 0 0 0 104 44 21 0 0 0 0 2 88 38 2 50 315 318 684 1544 1194 1703 2415 2762 2674 2767 2745 2790 4068 4167 3705 3573 3500 3079 2800 2849 2979 2967 2924 2889 2880 2858 2766 2716 2953 3097 3281 3993 4238 4174 4020 3963 3908 3816 3812 3900 3972 3883 3702 3580 3410 3343 3450 3406 3317 3220 3112 2992 2893 2841 2746
0 3 4 2 4 0 0 0 0 0 0 0 0 0 0 0 0 0 14 23 12 0 6 3 0 0 14 82 37 122 434 400 688 678 399 358 458 588 473 1517 2530 2784 2664 2451 2753 3744 4005 3865 3711 3498 3182 3036 3000 2968 2882 2812 2756 2724 2671 2627 2649 2891 3158 3839 4205 4279 4228 4176 4174 4149 4146 4136 4148 4082 3893 3718 3592 3477 3549 3549 3475 3379 3284 3192 3082 2931 2781
0 4 9 1 0 0 0 0 0 5 4 0 0 0 0 256 340 130 2 15 184 536 584 175 24 35 10 0 0 0 26 182 54 28 42 93 324 930 1090 1191 2162 2558 2569 2443 2349 2926 3728 3965 3845 3702 3545 3337 3220 3168 2952 2798 2686 2573 2484 2382 2619 2786 3210 3868 4286 4474 4492 4481 4510 4546 4501 4377 4310 4238 4068 3892 3717 3604 3653 3604 3527 3450 3365 3251 3138 2999 2870
0 0 1 0 5 2 0 0 0 48 54 10 0 62 1512 1355 594 357 328 203 415 768 838 693 441 237 134 84 0 0 4 0 0 0 0 0 0 0 402 1542 1827 2641 2814 2600 2488 2582 3250 3683 3812 3776 3714 3555 3464 3444 3271 3041 2835 2588 2426 2433 2886 3050 3436 4113 4556 4776 4804 4770 4754 4756 4633 4527 4430 4310 4178 4002 3834 3666 3622 3614 3524 3420 3313 3197 3113 3015 2914
0 4 6 1 0 0 0 63 421 33 48 4 223 678 1484 1461 1290 1064 760 1039 1071 1175 1259 1009 798 272 13 91 49 398 608 492 0 0 0 0 0 0 7 308 2287 2871 3145 3047 2695 2747 3017 3522 3737 3759 3750 3746 3693 3624 3499 3322 3199 2933 2798 3121 3361 3541 4007 4636 4932 5072 4978 4878 4806 4767 4693 4567 4404 4286 4156 4021 3866 3835 3696 3581 3512 3429 3335 3238 3147 3054 2968
8 6 0 0 0 297 1177 606 308 66 12 10 19 175 1134 1033 1198 1058 1166 1333 1413 1433 1238 908 1027 624 653 711 1034 1022 899 807 596 162 0 0 0 0 0 0 61 3321 3620 3350 3204 3047 3350 3620 3738 3747 3780 3839 3804 3732 3610 3477 3420 3292 3315 3984 4060 4310 4786 5081 5151 5140 5011 4872 4788 4722 4639 4510 4355 4202 4088 4106 4012 3919 3758 3628 3508 3401 3321 3258 3185 3103 3013
118 22 0 5 8 445 600 731 77 24 0 4 4 5 502 762 1083 1116 1391 1369 1440 1539 1659 1653 1612 1535 1468 1394 1369 1203 1154 1115 1413 1014 748 677 741 751 1014 698 111 258 3672 3854 3583 3700 3938 3964 3939 3836 3796 3818 3803 3760 3716 3578 3550 3482 3702 4480 4765 5024 5207 5214 5178 5104 4990 4873 4752 4657 4560 4444 4257 4078 4038 4055 3984 3969 3816 3669 3579 3497 3397 3357 3308 3235 3093
96 97 84 3 3 951 870 391 82 2 0 52 2 76 1071 1467 1208 1326 1168 1195 1228 1297 1301 1291 1540 1467 1444 1662 1933 2009 1978 1983 2283 2766 2383 1346 813 2201 2361 1509 1072 437 108 3120 4208 4274 4441 4270 4052 3908 3854 3853 3770 3730 3698 3596 3605 3617 4394 5064 5272 5269 5239 5211 5124 5033 4923 4800 4717 4593 4440 4222 4041 3948 3909 3939 3992 3988 3897 3782 3669 3557 3466 3376 3276 3187 3038
104 133 94 66 509 600 657 264 126 235 126 77 165 1234 950 1108 748 829 1020 879 866 836 759 801 1219 1231 1654 2390 2402 2436 2406 2178 2217 2596 2616 2635 3227 4045 4400 4053 3814 2768 172 987 3750 4580 4627 4441 4159 3976 3954 3873 3774 3728 3653 3596 3633 4179 5374 5432 5298 5192 5155 5064 4980 4880 4802 4738 4603 4438 4238 4004 3756 3727 3633 3590 3792 3916 3896 3817 3689 3575 3452 3359 3221 3090 2942
107 175 116 77 10 710 165 525 487 61 42 847 805 843 924 906 1140 1364 1743 1980 1998 1750 1675 1698 1842 1926 1982 2029 2146 2390 2292 2186 2268 2521 2548 2622 3047 3773 3732 3834 4207 4409 4935 4179 3915 4400 4625 4504 4235 4185 4173 3974 3918 3886 3800 3674 4280 5428 5473 5344 5191 5079 5017 4958 4871 4769 4744 4680 4608 4434 4152 3866 3453 3216 3038 3167 3436 3614 3640 3662 3626 3483 3329 3202 3087 2968 2811
76 132 70 48 9 167 173 200 586 916 867 870 1206 717 724 1319 1616 1729 1861 1846 1969 2065 1844 1495 1507 1529 1662 1720 1729 1885 1965 1926 2092 2478 2591 2490 2651 3573 3767 3760 4043 4194 4618 4212 4106 4413 4729 4701 4397 4576 4437 4218 4173 4123 4124 4624 5403 5461 5357 5241 5106 4978 4833 4720 4630 4488 4350 4204 4098 3883 3689 3319 3041 2846 2809 3087 3383 3559 3600 3568 3472 3379 3231 3120 3002 2868 2737
592 369 88 19 0 746 906 997 824 592 618 494 615 702 1165 1536 1532 1453 1463 1488 1446 1470 1460 1322 1269 1304 1506 1704 1840 1755 1753 1793 1794 1939 2271 2174 2506 2973 3790 3639 3488 3888 4362 4426 4123 4017 3986 3972 4064 4029 4290 4238 4230 4347 4853 5329 5372 5323 5249 5139 5016 4910 4772 4631 4455 4264 3998 3855 3707 3539 3157 3014 2869 3014 3082 3260 3345 3450 3489 3453 3334 3153 3066 3009 2901 2725 2571
510 542 487 380 738 795 766 575 518 472 517 645 949 1083 945 831 784 828 929 940 923 933 993 1080 1110 1214 1502 1625 1745 1753 1879 1872 1786 1829 1797 1907 2254 2422 3227 3888 3631 3442 3089 3354 3794 3673 3519 3918 3976 4193 4572 4393 4469 4917 5144 5169 5150 5139 5148 5102 4967 4820 4621 4377 4111 3732 3295 3177 3116 3032 2888 2884 3018 3138 3166 3192 3184 3260 3254 3184 3080 2986 2867 2712 2585 2454 2320
566 354 332 465 547 624 525 562 620 891 917 775 658 598 672 647 627 685 683 648 734 795 772 815 918 1069 1235 1478 1651 1800 1788 1811 1752 1706 1977 2082 2109 2070 2246 2691 3132 3354 3306 3465 3878 4206 4206 4174 4387 4526 4254 4004 4730 5166 5142 5020 5000 4999 5002 4946 4766 4508 4167 3694 3332 3049 2824 2744 2898 2977 3018 3009 2980 3008 3025 3031 3009 2971 2958 2924 2827 2719 2577 2405 2204 2029 1886
868 779 442 303 529 662 709 711 849 859 621 491 524 584 598 634 652 687 745 742 695 687 624 695 797 968 1124 1286 1428 1492 1643 1718 1847 1794 1834 2040 2136 2240 2236 2435 2715 3079 3464 3572 3864 4091 4093 4133 4271 4269 4034 4319 4864 4866 4836 4874 4824 4790 4501 4416 4158 3934 3499 3305 2956 2810 2737 2766 2724 2797 2819 2832 2838 2841 2836 2852 2836 2811 2775 2742 2666 2506 2269 2073 1942 1828 1722
645 522 224 136 399 619 698 752 741 611 75 239 476 534 608 684 665 660 727 689 775 628 584 692 694 783 1008 1146 1392 1544 1590 1788 1941 1997 1977 2063 1950 2244 2505 2561 2915 3058 3366 3652 3842 4037 3881 3937 3895 3967 3956 4373 4080 4435 4300 4130 4407 4243 3787 3726 3530 3410 3020 2765 2465 2602 2682 2667 2667 2643 2625 2611 2651 2596 2606 2556 2427 2366 2325 2297 2217 2081 1976 1868 1803 1724 1622
286 398 348 376 279 544 463 559 570 267 0 0 0 370 451 522 559 595 573 594 635 651 648 647 620 716 922 1083 1148 1271 1511 1700 1979 2155 2340 2472 2490 2474 2623 2738 2820 3010 3283 3569 3757 3951 3957 3729 3834 3914 3717 3355 3211 3556 3484 3370 3465 3480 3426 3339 3051 2808 2582 2520 2547 2604 2628 2668 2626 2566 2536 2510 2486 2397 2306 2188 2188 2128 2022 1974 1870 1786 1747 1752 1723 1706 1627
166 171 180 255 322 168 317 120 124 0 0 0 0 0 0 0 391 499 488 524 586 652 632 615 618 643 710 841 957 1094 1216 1304 1292 1405 1423 1428 1502 1548 1770 2248 2639 2868 3193 3540 3591 3561 3568 2845 2718 2625 2879 2529 2620 2730 2921 3287 3298 3580 3061 2869 2608 2472 2485 2466 2499 2511 2499 2486 2429 2310 2267 2176 2094 2094 2070 1986 1908 1821 1766 1743 1690 1664 1605 1603 1660 1644 1557
468 284 366 252 89 63 127 284 341 378 432 295 0 364 375 409 473 563 618 626 686 670 657 637 631 576 572 629 700 741 771 796 937 1073 1188 1312 1402 1386 1373 1361 1267 1727 2048 2320 2533 2618 1971 1942 1953 1913 2010 2036 2200 2405 2676 2610 2839 2816 2673 2514 2441 2434 2352 2399 2482 2506 2433 2366 2189 2057 1884 1798 1692 1707 1709 1720 1701 1675 1680 1652 1585 1500 1411 1363 1286 1161 1033
464 537 166 206 173 157 58 69 110 25 18 406 0 336 401 447 493 622 704 766 736 774 785 779 726 629 675 657 629 620 729 796 834 868 912 1027 1097 1010 1105 1354 1623 1504 1239 1248 1227 1190 1279 1310 1615 1802 2000 2529 2487 2688 2608 2554 2544 2297 2112 2138 2235 2311 2311 2330 2336 2358 2284 2107 1952 1882 1776 1676 1580 1570 1566 1538 1502 1443 1404 1368 1322 1278 1322 1250 1148 1010 770
377 446 312 84 375 281 29 45 16 1 28 204 0 2 38 26 287 295 394 454 567 652 703 686 736 710 724 816 818 770 738 752 776 803 911 1099 1126 1169 1285 1239 1170 1172 1528 1628 1642 1591 1402 1524 1709 2079 2332 2429 2535 2576 2619 2527 2385 2183 1973 1904 1902 1972 2055 1994 1908 1846 1836 1914 1877 1835 1655 1594 1519 1525 1496 1473 1363 1249 1203 1173 1094 1089 1046 1017 1061 987 734
304 453 395 7 42 206 64 43 19 0 0 0 0 0 0 10 35 1 0 0 0 0 146 443 435 613 639 506 614 644 516 500 555 767 852 833 954 1104 1152 1266 1377 1364 1518 1510 1647 1994 2040 2145 2160 2253 2262 2306 2410 2505 2518 2435 2218 2063 1990 1918 1992 2191 1966 1792 1770 1747 1706 1793 1764 1703 1470 1397 1364 1342 1322 1218 1187 1092 1062 1064 1054 987 904 818 789 834 734
77 66 118 68 32 35 20 9 0 0 0 0 0 0 0 0 0 0 0 0 0 0 0 0 0 0 54 52 0 331 48 248 77 128 553 542 737 941 1002 1026 1237 1419 1603 1786 1848 1947 1947 1862 2007 2104 2282 2237 2162 2070 2039 1984 1852 1760 1835 2000 1930 1754 1718 1706 1649 1575 1438 1355 1307 1281 1243 1244 1245 1195 1102 1017 854 729 716 865 854 757 670 731 675 545 176
92 64 39 43 42 18 0 0 0 0 0 0 0 0 0 0 0 0 0 0 0 0 0 0 0 0 0 0 0 0 10 217 160 133 41 111 487 729 855 1064 1157 1276 1283 1317 1406 1463 1575 1658 1770 1868 1879 2009 1938 1836 1739 1681 1658 1601 1755 1754 1689 1599 1532 1373 1230 1092 965 968 974 977 951 885 808 740 641 555 568 579 643 674 636 531 528 457 119 0 0
62 77 85 73 35 29 1 2 0 0 0 0 0 0 0 0 0 0 0 0 0 0 0 0 0 0 0 0 0 0 0 10 85 52 14 0 0 61 573 759 716 585 702 1058 1237 1256 1281 1267 1231 1244 1428 1543 1577 1718 1363 1349 1411 1522 1574 1583 1517 1398 1251 1156 1108 1021 892 777 794 954 1007 962 896 767 618 484 462 565 598 562 526 0 13 0 0 0 0
46 66 26 12 7 12 6 1 0 0 0 0 0 0 0 0 0 0 0 0 0 0 0 0 0 1 4 1 1 16 6 10 70 12 0 0 0 0 0 101 80 267 435 542 799 1036 1047 956 1010 1236 1278 1415 1610 1745 1578 1326 1274 1265 1154 1323 1392 1229 1072 1092 950 799 710 616 648 727 726 769 723 612 524 534 582 639 315 0 0 0 0 0 0 0 0
5 0 8 16 6 5 0 0 0 0 0 0 0 0 0 0 0 0 0 0 0 0 0 0 0 0 0 33 96 101 37 0 5 50 0 0 0 0 0 0 102 149 192 288 444 624 787 830 818 894 1041 1014 919 1023 1035 1038 972 773 730 914 857 985 908 912 876 776 653 628 610 573 490 412 254 147 533 592 537 58 0 0 0 0 0 0 0 221 269
34 23 25 24 1 0 0 0 0 0 0 0 0 0 0 0 0 0 0 0 0 0 0 0 0 0 0 4 10 1 1 1 0 2 0 0 0 0 0 0 80 7 0 0 0 191 487 711 672 648 873 883 912 901 784 773 870 775 707 693 790 893 875 814 746 755 655 524 390 344 285 292 240 181 106 479 587 514 416 242 0 0 0 67 330 384 333
15 0 0 0 0 0 0 0 0 0 0 0 0 0 0 0 0 0 0 0 0 0 0 0 0 0 0 0 0 0 16 0 0 0 1 0 0 14 12 0 16 120 0 0 0 107 183 541 463 439 431 901 930 567 375 464 468 563 624 695 727 686 723 746 673 602 413 283 536 874 469 417 295 295 266 192 70 15 299 232 46 0 0 66 118 64 0
2 0 0 0 0 0 0 1 2 0 0 0 0 0 0 0 0 0 0 0 0 0 0 0 6 23 0 0 0 0 0 0 1 0 0 0 0 3 2 7 9 51 0 0 0 8 186 216 503 663 599 798 581 1004 806 621 296 276 308 314 266 584 673 638 609 542 472 614 745 614 448 481 404 588 490 477 350 316 275 203 122 0 0 0 0 0 0
25 12 3 1 0 0 0 0 0 0 0 0 0 0 0 0 0 0 0 0 0 0 0 0 0 0 0 10 6 0 0 0 0 0 0 0 0 0 4 21 87 107 11 13 33 72 257 139 1162 387 1156 584 623 965 732 302 254 101 198 173 216 485 737 539 359 542 670 726 691 612 590 515 408 414 308 345 395 450 295 234 147 0 0 0 0 0 0
5 5 5 3 1 5 1 1 2 2 1 2 3 1 1 0 3 1 0 0 0 0 0 0 0 0 0 0 0 1 12 24 21 11 7 4 2 5 10 16 46 124 65 15 4 141 240 269 804 911 1068 433 572 449 616 1466 179 74 38 114 60 160 584 492 444 516 461 563 487 454 341 275 271 275 312 218 216 228 198 172 146 33 0 0 0 0 0
42 20 14 26 22 23 7 2 2 4 8 10 8 17 24 10 13 8 3 1 2 3 2 1 3 4 5 1 0 0 1 7 28 72 87 66 40 49 40 37 37 45 35 23 32 224 90 436 593 1037 519 648 505 314 674 1185 1490 280 117 116 282 193 226 456 523 421 477 477 328 255 300 113 124 100 84 56 16 0 0 0 0 0 0 0 0 0 0
28 24 34 39 5 4 1 10 6 10 15 16 14 16 20 24 8 4 2 7 24 38 10 5 3 11 20 7 4 10 18 27 54 76 67 32 33 23 17 24 31 43 71 84 49 68 264 663 452 132 133 178 216 133 431 1312 1038 429 390 321 346 332 107 128 115 210 317 249 242 276 214 124 178 172 107 68 15 0 0 0 0 0 0 0 0 0 0
13 18 29 39 32 25 20 9 10 13 22 23 34 21 23 19 14 11 16 31 52 78 41 33 20 13 29 51 30 26 38 50 56 71 91 92 76 62 29 18 28 36 143 127 140 260 333 300 143 128 161 189 171 244 406 667 920 362 539 544 433 319 217 200 100 265 290 225 141 164 191 200 166 96 73 0 0 0 0 0 0 0 0 0 0 0 0
37 44 35 24 12 11 12 4 2 3 10 13 44 39 39 34 44 44 38 38 56 140 100 50 39 44 24 22 31 32 43 59 70 86 88 80 76 52 20 20 51 74 120 124 137 213 191 111 119 66 3 92 70 682 240 874 277 262 225 296 218 208 222 193 170 148 189 208 232 188 119 99 76 47 0 0 0 0 0 19 0 0 0 0 0 0 0
35 33 24 18 17 23 27 13 3 0 0 0 0 3 7 6 0 2 2 0 0 0 26 149 214 83 70 86 88 70 44 35 29 33 70 83 49 30 28 39 138 164 208 92 60 42 52 34 51 120 66 21 122 326 651 259 198 231 232 180 188 256 248 241 254 300 298 277 243 156 96 85 60 58 11 0 0 13 24 0 0 0 0 0 0 0 0
0 9 36 30 10 3 5 11 5 0 0 1 6 10 18 20 6 0 2 6 4 1 0 0 106 242 98 39 74 64 33 58 69 52 25 20 65 120 109 66 108 189 189 185 71 26 26 28 0 4 38 60 216 283 214 161 143 162 176 222 229 271 262 228 179 183 169 189 131 78 65 44 0 10 8 0 0 0 0 0 0 0 0 3 8 8 0
9 12 32 62 82 96 16 5 0 1 9 38 38 16 23 23 26 71 99 41 15 13 0 0 0 17 96 89 44 71 122 113 70 66 48 18 6 4 13 44 90 217 225 166 20 10 23 11 1 12 70 163 219 170 62 36 45 74 89 94 158 232 268 255 199 172 156 139 108 21 0 49 50 11 6 0 0 0 0 0 0 0 5 3 2 13 0
74 80 43 26 62 89 14 4 2 2 10 16 48 74 48 40 29 32 40 68 64 24 38 28 3 3 23 51 95 167 165 83 40 66 47 23 1 0 1 117 128 183 196 196 98 13 0 0 32 24 65 128 200 176 21 21 8 49 76 48 26 83 100 73 48 21 0 0 0 0 0 0 0 0 0 0 1 0 0 0 0 0 0 0 0 0 0
111 120 166 294 140 62 50 77 72 51 29 25 16 21 30 30 25 43 42 28 75 20 2 18 35 7 0 0 6 15 19 5 0 10 43 6 0 0 39 65 0 94 10 116 168 192 27 96 57 1 12 266 235 10 3 0 29 19 169 101 120 27 23 3 7 42 29 8 0 0 0 0 0 2 3 1 0 0 0 0 0 0 0 0 0 0 0
130 116 92 78 108 137 161 125 114 75 72 72 53 33 29 38 52 34 35 55 91 90 60 33 22 51 46 16 8 3 4 4 1 0 22 88 84 119 112 14 25 11 113 124 109 107 121 189 352 34 17 225 243 31 1 3 2 0 0 4 38 56 29 0 0 0 0 3 0 0 4 0 0 0 0 0 0 0 0 0 0 0 0 0 0 0 0
81 70 79 49 53 70 78 67 57 45 46 62 48 35 93 118 74 63 6 3 53 19 5 3 44 41 46 23 11 23 20 15 14 4 9 4 1 12 32 43 14 13 12 69 195 415 320 136 3 14 45 287 202 36 66 39 45 44 21 2 0 4 11 0 0 0 14 0 0 0 0 0 2 8 8 4 0 0 0 0 0 0 0 0 0 0 0
130 117 102 100 98 99 104 107 95 97 62 72 68 5 47 65 58 44 2 18 47 22 3 3 3 2 6 94 41 15 82 45 16 6 6 4 0 0 2 16 31 13 2 0 0 35 308 76 70 62 215 381 122 93 70 44 84 77 52 56 38 1 0 0 0 0 0 0 0 1 1 0 1 3 1 1 1 0 0 0 0 0 0 0 0 0 0
70 1 24 98 138 103 95 76 72 121 86 77 61 63 72 35 29 27 27 12 50 70 2 1 0 2 3 1 28 27 30 48 55 50 11 1 0 0 0 0 0 11 46 0 0 1 767 475 302 410 433 284 182 12 2 27 18 40 44 58 72 20 21 0 0 0 0 0 0 0 2 1 2 5 11 12 11 9 0 2 4 2 0 0 0 0 0
226 169 1 62 195 237 229 221 210 200 80 118 24 44 43 18 16 8 1 13 1 15 3 6 7 14 8 3 0 0 0 0 1 41 0 0 0 0 8 1 0 2 1 0 0 0 0 6 1 4 3 5 0 0 0 0 0 0 0 2 3 5 1 4 9 3 3 0 0 0 0 0 0 0 0 0 0 1 3 6 4 3 2 1 0 0 0
234 182 154 38 2 0 0 0 0 0 0 0 7 2 0 0 0 0 0 28 1 0 0 0 3 5 6 6 4 0 0 0 0 0 0 0 0 0 0 3 0 0 0 0 0 0 0 0 0 0 0 0 0 0 6 8 7 3 0 0 0 0 0 0 0 0 0 0 0 0 0 2 2 4 4 2 2 2 0 0 2 2 3 3 2 1 0
Wind_Speed
nan nan nan nan nan nan nan nan nan nan nan nan nan nan nan nan nan nan nan 34 nan nan nan nan nan nan 28 28 nan nan 35 37 33 29 25 24 25 26 25 27 30 31 31 30 30 32 32 31 29 27 25 24 22 18 15 14 15 15 16 16 14 14 15 17 18 17 16 14 12 12 12 11 11 11 11 10 9 12 17 22 24 27 29 31 33 35 37
nan nan nan nan nan nan nan nan nan nan nan nan nan nan nan nan nan nan nan nan 28 nan nan nan nan 24 27 32 33 nan 33 35 32 31 29 27 24 23 24 28 31 31 31 32 32 33 34 34 30 28 26 24 22 21 17 17 17 16 18 17 15 13 13 15 17 17 18 17 15 14 12 11 11 12 11 10 9 14 20 24 26 28 30 32 34 37 39
nan nan nan nan nan nan nan nan nan nan nan nan nan nan nan nan nan nan nan nan nan nan nan nan nan 25 30 nan nan 35 nan 32 30 31 31 31 29 29 32 35 35 36 35 33 32 31 32 33 31 28 28 27 24 22 21 22 21 20 20 18 16 14 12 14 17 19 19 18 18 15 13 11 11 12 12 12 15 17 20 23 26 28 30 32 34 35 37
nan nan nan nan nan nan nan nan nan nan nan nan nan nan nan nan nan nan nan nan nan nan nan nan nan 33 nan nan nan nan 34 36 37 32 33 37 38 37 37 37 37 37 36 34 32 30 30 32 33 31 30 29 28 26 26 25 23 23 22 20 17 15 13 14 17 20 20 19 19 16 13 11 12 13 14 17 19 21 22 24 26 28 30 32 34 36 36
nan nan nan nan nan nan nan nan nan nan nan nan nan nan nan nan nan nan nan nan nan nan nan nan nan nan nan nan nan nan 34 36 40 38 35 37 38 36 38 40 40 38 37 38 38 36 32 32 35 34 33 32 31 30 29 27 27 27 25 22 19 17 16 16 17 20 20 19 18 16 13 12 13 15 17 20 21 23 25 26 28 29 31 34 36 37 38
nan nan nan nan nan nan nan nan nan nan nan nan nan nan nan nan nan nan nan nan 32 nan nan nan nan nan nan nan nan nan nan nan 33 37 39 41 38 38 40 41 40 38 41 42 40 37 34 34 35 35 36 36 34 33 32 31 32 29 27 24 23 21 19 18 18 20 20 19 17 15 15 15 16 16 19 21 23 25 27 29 31 31 32 36 38 40 40
nan nan nan nan nan nan nan nan nan nan nan nan nan nan nan nan nan nan nan nan nan nan nan nan nan nan nan nan nan 44 40 36 34 34 38 41 43 40 41 42 39 38 38 39 37 35 34 34 33 36 36 36 36 36 36 34 32 30 28 27 26 25 22 20 21 20 19 18 17 17 18 18 18 19 20 22 25 28 30 32 34 35 35 38 40 41 42
nan nan nan nan nan nan nan nan nan nan nan nan nan nan nan 42 37 30 nan nan 34 40 45 51 nan nan nan nan nan nan nan 47 nan nan nan nan 42 44 40 37 36 34 34 36 35 34 35 34 32 34 35 37 40 39 38 37 33 31 30 29 28 27 24 23 22 21 20 20 20 20 21 22 21 22 23 24 27 30 33 34 35 37 36 39 42 43 44
nan nan nan nan nan nan nan nan nan nan nan nan nan nan 48 48 43 39 39 40 40 42 42 44 46 48 53 nan nan nan nan nan nan nan nan nan nan nan 39 36 32 31 32 34 34 35 36 36 33 30 34 39 40 40 39 37 36 34 32 30 30 29 26 25 24 22 21 23 23 24 24 25 25 26 27 28 30 33 36 38 39 39 40 41 43 44 45
nan nan nan nan nan nan nan nan 41 nan nan nan 56 51 48 51 52 48 47 45 42 42 42 44 42 44 nan nan nan 52 61 59 nan nan nan nan nan nan nan 43 40 35 33 34 38 39 36 35 31 29 32 38 41 42 40 37 37 37 34 32 32 32 29 28 26 23 23 25 26 26 27 28 29 30 31 32 34 36 39 41 42 42 44 46 46 46 48
nan nan nan nan nan 49 48 46 43 nan nan nan nan 55 55 52 53 54 53 53 50 48 48 48 47 46 43 41 42 47 53 57 60 63 nan nan nan nan nan nan nan 42 36 38 45 47 42 36 33 33 33 37 41 42 40 39 39 39 36 36 35 34 33 31 29 27 26 28 29 29 30 31 33 33 34 36 37 39 41 43 45 47 49 49 48 48 50
44 nan nan nan nan 53 47 50 nan nan nan nan nan nan 47 51 58 61 60 61 58 56 54 53 56 52 48 45 42 44 49 50 54 56 61 62 62 61 59 57 50 48 45 46 52 55 49 42 43 45 44 43 44 44 41 41 41 41 40 39 38 38 37 35 32 31 30 31 32 32 34 35 35 36 38 39 40 42 43 46 48 49 50 49 48 49 51
nan nan nan nan nan 54 50 49 nan nan nan nan nan nan 45 46 57 61 62 60 58 57 59 57 54 49 50 48 47 47 47 50 49 48 49 46 47 49 54 61 64 59 55 53 56 58 55 51 52 54 52 47 45 45 45 43 42 43 46 46 44 42 40 37 35 33 32 33 35 34 36 37 38 40 41 42 43 44 46 49 51 52 53 51 49 50 52
39 42 nan nan 47 49 51 50 45 48 50 nan 44 46 47 50 53 56 58 58 57 56 57 56 55 54 57 58 56 52 49 47 46 48 48 48 43 43 47 55 64 65 57 59 58 57 57 56 57 56 53 48 46 48 48 43 44 51 52 49 47 44 41 38 36 34 34 35 36 37 38 40 41 43 42 43 44 46 47 50 53 56 57 56 56 55 53
46 46 48 nan nan 44 48 49 46 nan nan 46 46 51 56 54 53 53 52 52 53 55 58 59 59 61 61 59 56 54 52 50 49 47 48 48 46 45 50 47 57 73 77 72 65 60 59 62 63 60 56 52 50 49 46 47 52 53 53 52 50 47 43 39 37 36 37 39 39 39 41 42 45 45 43 42 44 47 50 53 57 59 60 59 58 54 49
nan 49 nan nan nan 40 39 41 43 44 50 47 53 55 55 53 51 49 48 50 50 52 55 56 58 62 61 59 59 56 55 54 55 55 55 55 53 52 50 48 49 57 63 68 74 80 79 71 63 60 57 50 46 46 50 56 57 56 55 55 53 51 46 41 39 40 41 42 42 42 44 45 46 46 43 43 46 49 53 56 57 59 57 55 50 47 45
54 55 nan nan nan 44 46 48 46 51 53 55 59 59 56 54 53 49 50 49 50 51 52 55 57 59 62 62 62 61 57 57 59 60 62 62 60 54 53 52 50 56 59 62 65 68 68 67 65 58 51 45 45 50 54 57 59 57 56 56 56 52 47 44 44 44 45 45 45 45 45 45 45 44 44 46 49 51 54 55 55 55 52 48 46 45 47
58 50 48 51 48 46 47 48 52 56 58 61 62 61 57 55 54 53 53 51 51 51 52 54 53 53 53 57 58 58 58 58 60 63 67 68 67 64 59 57 56 56 60 64 65 65 61 58 57 58 56 50 51 53 54 56 58 59 56 56 55 52 48 47 47 48 47 47 47 46 44 44 44 44 46 49 51 52 52 51 51 50 47 45 45 47 49
63 56 56 50 48 55 59 59 57 58 60 62 62 59 55 54 55 56 56 56 55 54 54 55 53 53 53 54 54 54 54 57 59 63 67 68 69 68 65 57 54 60 63 64 62 62 63 59 59 57 53 45 46 50 54 57 58 58 56 54 53 51 50 49 50 48 47 46 46 46 46 47 47 48 50 52 53 51 49 48 47 46 46 46 46 49 52
64 56 53 55 57 60 61 59 57 58 60 59 55 52 51 54 56 56 55 56 57 56 57 55 57 58 57 57 55 53 53 53 55 58 61 64 65 66 65 60 54 58 60 60 58 57 59 61 61 58 57 62 55 50 55 58 57 56 53 50 51 52 53 51 50 49 47 50 50 48 48 49 48 49 50 51 51 48 47 46 46 45 46 47 48 51 53
62 66 54 48 51 68 67 67 64 62 nan 54 50 49 51 55 57 57 57 57 54 55 56 55 57 61 59 57 55 55 54 53 54 55 55 57 56 56 61 61 57 56 57 59 57 57 58 62 64 60 61 64 59 52 50 54 57 55 51 50 52 54 53 52 51 50 48 48 50 51 51 52 51 49 46 44 47 47 42 39 42 48 48 48 49 51 54
57 61 57 55 54 60 62 64 63 62 nan nan nan 50 50 52 53 54 57 57 56 57 56 55 55 57 55 56 56 57 54 54 54 53 52 50 48 50 54 55 54 55 59 62 63 61 59 63 68 64 62 62 57 54 48 48 53 51 47 48 51 52 52 52 51 50 49 49 50 51 52 52 52 51 52 50 45 44 42 40 39 42 51 50 53 53 54
49 58 57 50 54 66 67 63 59 nan nan nan nan nan nan nan 51 51 53 54 55 55 52 52 54 52 52 53 54 58 56 54 51 51 49 47 46 48 52 55 57 58 59 65 69 66 59 58 64 60 58 59 55 53 46 43 43 41 43 46 49 49 50 51 51 50 50 50 49 50 51 51 50 50 49 51 53 50 45 42 46 49 56 60 62 60 58
49 52 49 45 nan nan 64 64 63 63 61 62 nan 57 53 51 49 49 51 50 51 49 47 48 49 50 51 53 54 54 53 53 51 48 46 45 47 52 51 47 51 56 56 60 64 62 55 55 50 45 50 53 54 46 39 37 36 38 43 47 47 48 49 49 51 51 51 50 50 51 50 49 49 50 51 52 49 50 51 52 54 55 56 61 64 64 62
48 47 46 45 50 55 nan nan 61 nan nan 66 nan 58 55 54 52 50 49 48 47 49 48 48 47 47 51 51 50 50 50 49 45 45 48 48 46 47 50 41 35 40 47 54 60 62 55 44 39 39 47 51 51 45 38 38 38 42 46 48 48 48 48 49 50 51 50 49 50 51 52 51 50 50 50 50 52 51 50 57 62 60 59 58 58 57 57
57 49 46 nan 51 54 nan nan nan nan nan 60 nan nan nan nan 53 53 52 48 47 47 48 47 47 47 48 49 47 46 47 45 40 45 50 52 50 49 50 45 36 25 30 37 41 50 42 25 23 32 36 40 45 44 43 42 44 45 47 48 48 47 48 49 51 50 50 51 52 52 52 52 52 52 51 51 52 53 55 55 56 57 59 60 58 57 53
55 52 49 nan nan 54 nan nan nan nan nan nan nan nan nan nan nan nan nan nan nan nan 46 46 46 46 47 45 43 44 43 39 40 43 45 47 44 41 42 43 37 29 22 24 31 40 40 32 30 29 29 34 39 41 41 43 45 47 49 50 49 51 55 52 51 51 52 52 52 52 52 52 53 54 54 52 51 54 56 57 56 55 54 54 52 49 49
nan nan 50 nan nan nan nan nan nan nan nan nan nan nan nan nan nan nan nan nan nan nan nan nan nan nan nan nan nan 39 nan 39 nan 41 43 41 37 34 37 39 39 37 38 39 39 42 44 41 38 34 30 31 35 38 41 45 47 49 50 50 51 51 52 53 52 52 52 52 53 52 51 51 53 55 53 53 54 56 56 56 56 56 53 50 47 47 49
nan nan nan nan nan nan nan nan nan nan nan nan nan nan nan nan nan nan nan nan nan nan nan nan nan nan nan nan nan nan nan 35 37 40 nan 37 35 35 34 37 38 38 37 41 43 43 44 43 38 35 33 33 37 41 43 46 48 49 51 51 51 52 52 52 51 51 52 53 53 52 50 51 54 55 54 55 57 58 56 55 54 53 52 49 47 nan nan
nan nan nan nan nan nan nan nan nan nan nan nan nan nan nan nan nan nan nan nan nan nan nan nan nan nan nan nan nan nan nan nan nan nan nan nan nan nan 38 36 37 37 37 39 42 42 42 42 40 38 35 37 39 42 45 46 48 49 50 51 52 52 52 52 53 53 53 52 51 53 53 54 55 56 57 58 57 56 55 54 53 nan nan nan nan nan nan
nan nan nan nan nan nan nan nan nan nan nan nan nan nan nan nan nan nan nan nan nan nan nan nan nan nan nan nan nan nan nan nan nan nan nan nan nan nan nan 39 nan 37 36 35 37 40 41 41 40 41 41 42 43 44 45 46 47 50 52 52 53 57 58 58 56 54 51 48 48 51 53 55 56 58 59 58 55 51 50 nan nan nan nan nan nan nan nan
nan nan nan nan nan nan nan nan nan nan nan nan nan nan nan nan nan nan nan nan nan nan nan nan nan nan nan nan nan 30 nan nan nan nan nan nan nan nan nan nan 38 38 37 35 37 39 40 41 43 43 43 46 46 44 47 48 49 52 52 52 54 55 56 58 54 52 50 48 49 52 53 55 55 56 56 53 49 nan nan nan nan nan nan nan nan 41 42
nan nan nan nan nan nan nan nan nan nan nan nan nan nan nan nan nan nan nan nan nan nan nan nan nan nan nan nan nan nan nan nan nan nan nan nan nan nan nan nan nan nan nan nan nan 39 40 44 42 42 44 46 50 50 50 51 52 52 53 56 57 59 58 58 57 55 53 52 52 52 51 52 54 54 53 49 45 43 42 41 nan nan nan nan 41 42 42
nan nan nan nan nan nan nan nan nan nan nan nan nan nan nan nan nan nan nan nan nan nan nan nan nan nan nan nan nan nan nan nan nan nan nan nan nan nan nan nan nan 39 nan nan nan 41 43 43 44 45 46 47 49 47 48 51 52 53 55 58 60 60 61 60 60 58 56 53 53 52 53 53 52 52 49 46 nan nan 40 40 nan nan nan nan 41 nan nan
nan nan nan nan nan nan nan nan nan nan nan nan nan nan nan nan nan nan nan nan nan nan nan nan nan nan nan nan nan nan nan nan nan nan nan nan nan nan nan nan nan nan nan nan nan nan 42 42 43 45 45 47 49 49 51 52 55 54 54 57 60 59 61 61 57 52 53 53 54 54 54 53 49 47 44 43 41 40 40 40 39 nan nan nan nan nan nan
nan nan nan nan nan nan nan nan nan nan nan nan nan nan nan nan nan nan nan nan nan nan nan nan nan nan nan nan nan nan nan nan nan nan nan nan nan nan nan nan nan 41 nan nan nan nan 44 44 44 48 48 53 52 52 53 52 55 59 56 57 60 60 61 63 55 46 48 49 48 46 45 44 41 40 39 38 39 40 40 41 41 nan nan nan nan nan nan
nan nan nan nan nan nan nan nan nan nan nan nan nan nan nan nan nan nan nan nan nan nan nan nan nan nan nan nan nan nan nan nan nan nan nan nan nan nan nan nan nan 40 nan nan nan 36 37 37 39 44 44 47 53 54 53 52 53 nan nan 56 nan 56 55 57 52 50 45 44 43 39 37 37 36 36 38 39 39 40 42 42 41 nan nan nan nan nan nan
nan nan nan nan nan nan nan nan nan nan nan nan nan nan nan nan nan nan nan nan nan nan nan nan nan nan nan nan nan nan nan nan nan nan nan nan nan nan nan nan nan nan nan nan nan 34 nan 35 37 35 36 40 44 48 51 56 55 52 52 53 50 51 46 42 44 43 41 40 36 35 35 35 36 38 nan nan nan nan nan nan nan nan nan nan nan nan nan
nan nan nan nan nan nan nan nan nan nan nan nan nan nan nan nan nan nan nan nan nan nan nan nan nan nan nan nan nan nan nan nan nan nan nan nan nan nan nan nan nan nan nan nan nan nan 38 40 42 40 39 40 39 40 43 46 50 48 47 47 48 46 44 31 28 33 36 30 30 34 35 36 37 38 39 nan nan nan nan nan nan nan nan nan nan nan nan
nan nan nan nan nan nan nan nan nan nan nan nan nan nan nan nan nan nan nan nan nan nan nan nan nan nan nan nan nan nan nan nan nan nan nan nan nan nan nan nan nan nan 37 39 38 40 44 47 43 39 38 38 38 37 36 40 42 39 41 41 40 37 33 27 25 29 33 30 31 32 36 37 37 nan nan nan nan nan nan nan nan nan nan nan nan nan nan
nan nan nan nan nan nan nan nan nan nan nan nan nan nan nan nan nan nan nan nan nan 31 33 nan nan nan nan nan nan nan nan nan nan nan nan nan nan nan nan nan nan nan 38 39 39 41 43 42 39 nan nan nan nan 31 31 31 31 31 31 30 29 28 26 28 27 31 30 31 34 36 38 nan nan nan nan nan nan nan nan nan nan nan nan nan nan nan nan
nan nan nan nan nan nan nan nan nan nan nan nan nan nan nan nan nan nan nan nan nan nan nan 29 32 nan nan nan nan nan nan nan nan nan nan nan nan nan nan nan 32 34 42 nan nan nan nan nan nan 32 nan nan 25 29 30 24 27 27 27 28 28 28 29 28 28 29 31 36 37 35 nan nan nan nan nan nan nan nan nan nan nan nan nan nan nan nan nan
nan nan nan nan nan nan nan nan nan nan nan nan nan nan nan nan nan nan nan nan nan nan nan nan 26 27 nan nan nan nan nan nan nan nan nan nan nan 31 32 nan 29 32 40 36 nan nan nan nan nan nan nan nan 26 31 29 24 27 28 28 29 29 31 32 32 33 33 34 36 36 nan nan nan nan nan nan nan nan nan nan nan nan nan nan nan nan nan nan
nan nan nan nan nan nan nan nan nan nan nan nan nan nan nan nan nan nan nan nan nan nan nan nan nan nan nan nan nan nan 20 19 nan nan nan nan nan nan nan nan nan 29 34 29 nan nan nan nan nan nan nan 33 33 33 nan nan nan nan nan nan 31 33 33 35 36 36 36 33 33 nan nan nan nan nan nan nan nan nan nan nan nan nan nan nan nan nan nan
nan nan nan nan nan nan nan nan nan nan nan nan nan nan nan nan nan nan nan nan nan nan nan nan nan nan nan nan nan 19 19 nan nan nan nan nan nan nan nan 23 23 24 26 28 nan nan nan nan nan nan nan 30 31 33 nan nan nan nan nan nan nan nan nan nan nan nan nan nan nan nan nan nan nan nan nan nan nan nan nan nan nan nan nan nan nan nan nan
8 9 8 9 9 nan nan nan nan nan nan nan nan nan nan nan nan nan nan nan nan nan nan nan nan nan nan nan nan nan nan nan nan nan nan nan nan nan nan nan nan nan nan 29 24 25 nan nan nan nan nan 30 32 nan nan nan nan nan 31 33 33 nan nan nan nan nan nan nan nan nan nan nan nan nan nan nan nan nan nan nan nan nan nan nan nan nan nan
8 7 nan nan 10 12 12 13 14 nan nan nan nan nan nan nan nan nan nan nan nan nan nan nan nan nan nan nan nan nan nan nan nan nan nan nan nan 26 28 nan nan nan 29 27 26 24 24 26 28 nan nan 28 31 nan nan nan nan nan nan nan nan nan nan nan nan nan nan nan nan nan nan nan nan nan nan nan nan nan nan nan nan nan nan nan nan nan nan
nan nan nan nan nan nan nan nan nan nan nan nan nan nan nan 18 nan nan nan nan nan nan nan nan nan nan nan nan nan nan nan nan nan nan nan nan nan nan nan nan nan nan nan nan 25 22 25 27 nan nan nan 28 28 nan nan nan nan nan nan nan nan nan nan nan nan nan nan nan nan nan nan nan nan nan nan nan nan nan nan nan nan nan nan nan nan nan nan
13 13 13 14 nan nan 15 15 nan nan nan nan nan nan nan nan nan nan nan nan nan nan nan nan nan nan nan nan nan nan nan nan nan nan nan nan nan nan nan nan nan nan nan nan nan nan 28 nan nan nan 27 30 31 nan nan nan nan nan nan nan nan nan nan nan nan nan nan nan nan nan nan nan nan nan nan nan nan nan nan nan nan nan nan nan nan nan nan
nan nan nan nan 12 13 nan nan nan 15 nan nan nan nan nan nan nan nan nan nan nan nan nan nan nan nan nan nan nan nan nan nan nan nan nan nan nan nan nan nan nan nan nan nan nan nan 31 33 32 30 29 28 31 nan nan nan nan nan nan nan nan nan nan nan nan nan nan nan nan nan nan nan nan nan nan nan nan nan nan nan nan nan nan nan nan nan nan
11 11 nan nan 10 11 10 12 13 14 nan 15 nan nan nan nan nan nan nan nan nan nan nan nan nan nan nan nan nan nan nan nan nan nan nan nan nan nan nan nan nan nan nan nan nan nan nan nan nan nan nan nan nan nan nan nan nan nan nan nan nan nan nan nan nan nan nan nan nan nan nan nan nan nan nan nan nan nan nan nan nan nan nan nan nan nan nan
12 12 13 nan nan nan nan nan nan nan nan nan nan nan nan nan nan nan nan nan nan nan nan nan nan nan nan nan nan nan nan nan nan nan nan nan nan nan nan nan nan nan nan nan nan nan nan nan nan nan nan nan nan nan nan nan nan nan nan nan nan nan nan nan nan nan nan nan nan nan nan nan nan nan nan nan nan nan nan nan nan nan nan nan nan nan nan
Wind_Direction
nan nan nan nan nan nan nan nan nan nan nan nan nan nan nan nan nan nan nan 228 nan nan nan nan nan nan 226 237 nan nan 263 267 262 252 259 266 262 256 257 261 265 267 266 267 274 277 283 284 279 274 273 275 276 279 281 283 288 298 297 300 313 319 324 334 339 334 320 309 311 315 322 328 328 327 332 335 336 337 339 341 336 338 340 339 336 335 336
nan nan nan nan nan nan nan nan nan nan nan nan nan nan nan nan nan nan nan nan 217 nan nan nan nan 215 226 233 237 nan 251 264 265 254 248 255 258 260 259 259 261 263 264 263 267 271 276 282 280 274 274 277 282 287 286 284 288 287 287 297 305 310 325 332 326 321 312 305 308 313 317 324 324 322 322 324 326 332 336 337 333 332 335 335 334 336 337
nan nan nan nan nan nan nan nan nan nan nan nan nan nan nan nan nan nan nan nan nan nan nan nan nan 210 222 nan nan 228 nan 246 255 253 254 250 252 243 235 234 243 247 251 252 257 265 274 281 282 278 278 282 285 293 294 294 294 288 288 292 298 306 321 319 312 308 305 304 304 311 315 313 309 308 310 310 314 321 327 330 330 327 329 331 332 333 335
nan nan nan nan nan nan nan nan nan nan nan nan nan nan nan nan nan nan nan nan nan nan nan nan nan 213 nan nan nan nan 230 227 234 238 246 250 247 246 247 248 249 255 254 252 257 263 269 276 280 278 278 282 287 296 302 304 299 289 288 290 296 303 304 299 300 303 303 302 302 305 304 303 297 297 300 307 312 314 318 323 322 319 324 328 328 327 327
nan nan nan nan nan nan nan nan nan nan nan nan nan nan nan nan nan nan nan nan nan nan nan nan nan nan nan nan nan nan 239 236 228 231 239 247 250 252 253 253 257 261 263 265 268 268 264 267 274 281 284 283 289 296 301 303 291 287 291 292 292 294 292 293 297 297 297 299 300 298 297 289 279 285 300 308 310 310 315 315 311 317 322 321 322 322 324
nan nan nan nan nan nan nan nan nan nan nan nan nan nan nan nan nan nan nan nan 245 nan nan nan nan nan nan nan nan nan nan nan 232 231 229 227 236 253 257 258 259 257 257 260 266 268 264 265 274 280 281 285 290 293 296 292 289 290 291 288 287 291 290 291 291 290 291 293 292 289 283 277 274 286 301 309 307 303 302 306 313 315 314 317 317 320 322
nan nan nan nan nan nan nan nan nan nan nan nan nan nan nan nan nan nan nan nan nan nan nan nan nan nan nan nan nan 223 231 234 236 233 231 233 239 239 243 251 254 252 256 261 264 265 267 270 271 272 275 281 283 281 281 285 288 288 289 286 283 285 289 288 284 282 285 285 282 278 278 277 277 287 298 300 301 298 301 308 310 311 313 315 316 317 318
nan nan nan nan nan nan nan nan nan nan nan nan nan nan nan 209 216 234 nan nan 248 237 231 228 nan nan nan nan nan nan nan 233 nan nan nan nan 232 244 249 244 245 253 259 262 263 264 265 267 269 272 275 276 277 280 282 285 282 281 281 280 277 279 284 281 280 278 278 275 273 272 275 278 281 287 292 297 299 294 295 298 301 302 306 310 313 314 315
nan nan nan nan nan nan nan nan nan nan nan nan nan nan 206 203 208 219 235 241 244 241 235 232 231 234 237 nan nan nan nan nan nan nan nan nan nan nan 241 257 263 261 260 260 260 261 263 263 266 272 271 270 274 275 277 278 277 274 275 276 274 278 281 277 273 271 271 272 272 274 278 282 285 288 291 292 290 288 292 296 298 301 304 305 307 310 312
nan nan nan nan nan nan nan nan 212 nan nan nan 219 219 210 205 204 212 226 229 232 237 236 235 234 236 nan nan nan 222 218 225 nan nan nan nan nan nan nan 240 244 247 251 256 258 261 262 260 262 265 266 266 270 273 276 276 273 269 270 271 269 272 275 275 271 267 267 271 275 278 281 285 286 284 285 286 289 291 295 297 299 301 300 301 305 309 311
nan nan nan nan nan 212 212 209 210 nan nan nan nan 219 213 205 206 209 218 224 224 226 232 234 237 237 237 233 230 221 219 218 219 223 nan nan nan nan nan nan nan 246 244 251 257 258 261 259 254 252 258 268 271 273 273 273 270 267 265 262 264 269 272 272 268 264 265 269 273 278 280 280 282 285 287 290 291 292 293 295 299 301 302 303 303 306 308
218 nan nan nan nan 223 218 218 nan nan nan nan nan nan 221 213 212 213 220 223 223 222 225 232 236 235 235 230 226 223 218 218 221 225 226 227 227 226 224 226 228 237 245 251 260 265 265 263 259 258 265 270 271 269 269 267 266 265 262 259 259 260 263 266 263 260 263 267 270 275 277 278 281 284 283 286 291 292 291 292 295 296 298 300 302 304 305
nan nan nan nan nan 226 228 226 nan nan nan nan nan nan 234 227 226 224 227 227 226 225 226 227 233 232 237 235 232 228 225 224 221 223 224 229 237 236 230 225 225 229 238 250 259 266 268 266 263 264 267 268 263 259 261 262 262 261 255 252 254 257 259 263 263 263 263 268 273 274 277 279 281 282 284 286 287 289 290 290 294 297 298 296 296 298 301
216 215 nan nan 218 220 223 227 228 228 226 nan 234 232 235 236 233 230 229 229 227 228 228 230 231 230 230 230 230 229 230 232 231 230 229 227 232 243 238 230 224 221 224 239 248 257 264 267 267 267 268 266 258 251 252 256 255 251 254 254 254 256 259 262 264 264 265 266 269 270 273 277 279 279 279 285 289 292 292 291 293 295 295 295 294 296 297
209 212 216 nan nan 221 223 220 222 nan nan 227 232 236 233 235 236 235 232 229 229 229 229 229 232 234 234 232 231 230 227 226 229 233 232 227 226 237 246 244 236 229 221 224 232 242 252 257 258 258 260 258 251 244 245 247 246 250 253 254 254 255 256 258 260 260 261 265 266 267 270 274 277 278 281 288 292 293 292 291 293 295 297 298 299 299 297
nan 212 nan nan nan 227 227 227 226 225 231 232 234 236 236 233 234 236 234 231 230 231 232 230 231 233 235 235 233 233 230 227 226 230 232 229 228 231 237 249 251 239 231 231 232 230 228 231 242 251 252 251 249 242 238 239 244 247 250 251 253 254 254 255 256 256 258 261 262 266 270 271 272 278 284 288 291 291 291 293 296 300 301 302 302 303 303
208 207 nan nan nan 222 224 233 231 233 231 233 235 236 236 235 234 234 234 232 232 229 229 230 229 230 230 231 231 232 233 231 228 228 231 233 232 235 239 237 241 247 245 241 239 235 234 233 231 226 231 245 246 242 236 240 243 246 249 251 252 253 253 252 253 253 255 256 258 261 266 271 276 280 285 289 290 291 293 295 300 303 304 302 303 305 306
206 204 208 205 222 233 237 231 231 232 232 231 233 236 237 234 235 234 235 234 234 232 231 233 232 232 231 231 230 231 234 235 233 231 232 233 233 234 235 238 238 244 250 250 248 246 242 245 249 243 226 225 240 241 240 241 242 242 247 250 251 251 250 250 253 255 257 257 259 261 263 267 272 278 283 284 284 287 291 297 301 303 301 299 301 303 304
214 214 206 208 221 223 230 235 234 233 233 234 236 237 237 237 237 237 235 236 236 236 235 234 235 233 232 233 233 236 237 237 236 235 235 235 235 235 235 234 240 243 246 248 248 252 250 239 245 252 251 237 239 245 242 242 242 242 244 248 249 247 248 249 251 255 258 259 261 263 265 268 272 277 280 281 283 287 290 294 297 298 297 297 298 299 300
217 217 213 211 223 227 229 230 232 236 238 240 240 241 241 240 239 238 236 236 236 234 234 233 235 235 234 234 235 238 240 241 243 242 239 239 239 238 239 237 237 243 246 249 252 255 252 241 241 249 245 235 227 236 240 238 238 238 238 243 246 247 248 249 250 253 256 260 259 258 258 262 266 269 274 281 285 287 290 292 294 295 295 296 297 298 299
214 207 204 205 217 230 232 233 231 230 nan 238 240 240 240 240 240 239 236 234 235 234 235 235 237 238 236 236 238 241 242 244 246 245 246 246 246 244 242 241 237 239 240 239 243 249 247 241 240 245 245 237 236 243 238 226 227 229 232 237 243 245 246 248 249 250 253 255 258 260 260 261 263 264 267 273 280 281 277 279 288 295 296 295 294 295 297
213 217 214 216 226 228 227 231 232 233 nan nan nan 233 236 238 239 239 239 238 238 238 236 237 240 242 241 238 238 239 240 243 244 246 247 249 250 247 245 244 243 240 238 238 238 240 242 241 238 235 240 238 232 239 243 233 224 224 227 234 241 244 245 247 249 251 254 255 258 260 262 265 268 266 264 265 266 276 281 277 282 294 295 294 294 293 295
216 213 214 221 230 231 222 224 229 nan nan nan nan nan nan nan 239 238 239 240 238 238 239 240 241 242 241 240 240 242 241 241 246 248 249 251 252 250 247 246 243 241 242 243 241 238 239 238 239 238 239 243 239 240 236 227 221 218 225 232 238 242 245 246 249 252 255 255 257 259 263 267 268 270 269 263 264 266 272 277 280 288 296 296 298 300 302
216 213 213 221 nan nan 229 227 229 233 236 239 nan 237 237 240 239 238 239 240 243 242 242 243 245 245 245 244 244 247 246 243 242 244 246 248 251 254 252 249 251 250 245 244 244 241 240 244 244 245 251 249 248 243 231 216 213 217 224 232 238 241 244 249 252 253 254 257 259 262 263 265 267 268 268 271 268 267 269 272 273 274 281 293 300 302 304
217 218 219 225 230 233 nan nan 231 nan nan 237 nan 239 239 239 238 237 239 242 243 245 246 246 246 246 249 249 250 253 253 248 243 243 244 245 247 249 254 260 258 251 247 246 247 246 246 249 252 244 238 231 230 230 221 213 214 220 226 233 240 245 248 251 252 255 257 258 260 263 265 265 266 267 271 274 277 278 273 273 273 275 276 278 283 289 294
215 220 220 nan 234 228 nan nan nan nan nan 235 nan nan nan nan 242 241 242 242 243 244 246 247 247 246 248 251 252 254 255 251 245 246 246 246 245 246 252 268 278 259 236 236 240 246 244 233 230 226 214 210 213 215 213 212 215 221 230 238 244 246 249 251 252 253 256 257 259 261 263 265 267 270 272 275 280 283 283 281 278 277 276 278 281 285 284
218 216 226 nan nan 234 nan nan nan nan nan nan nan nan nan nan nan nan nan nan nan nan 243 246 250 253 252 252 255 255 257 253 246 246 248 246 245 248 252 259 265 264 251 245 236 227 223 221 216 212 204 202 206 213 219 220 223 228 234 239 243 250 256 252 251 253 255 258 261 263 264 266 269 272 274 277 281 283 284 285 286 288 290 287 281 279 288
nan nan 227 nan nan nan nan nan nan nan nan nan nan nan nan nan nan nan nan nan nan nan nan nan nan nan nan nan nan 252 nan 250 nan 245 248 247 246 247 248 250 252 250 247 240 232 230 234 237 236 232 228 224 221 220 222 224 226 230 235 240 244 245 246 250 251 252 255 258 259 260 262 266 270 273 276 278 278 278 279 283 289 292 289 287 288 285 284
nan nan nan nan nan nan nan nan nan nan nan nan nan nan nan nan nan nan nan nan nan nan nan nan nan nan nan nan nan nan nan 248 246 244 nan 250 247 247 248 247 247 246 244 239 233 228 231 235 238 241 243 239 233 229 228 229 230 233 237 241 243 245 246 247 249 251 255 258 260 263 267 272 272 273 275 275 275 277 281 288 291 290 290 291 291 nan nan
nan nan nan nan nan nan nan nan nan nan nan nan nan nan nan nan nan nan nan nan nan nan nan nan nan nan nan nan nan nan nan nan nan nan nan nan nan nan 241 238 240 238 234 230 227 224 224 227 228 228 228 233 234 233 234 234 236 236 239 242 246 247 248 250 250 251 253 257 262 269 272 273 274 275 275 275 278 283 289 292 292 nan nan nan nan nan nan
nan nan nan nan nan nan nan nan nan nan nan nan nan nan nan nan nan nan nan nan nan nan nan nan nan nan nan nan nan nan nan nan nan nan nan nan nan nan nan 235 nan 234 230 224 223 224 223 222 222 224 223 224 231 237 240 241 241 242 243 244 246 253 255 255 255 256 256 257 262 267 270 273 275 277 278 280 285 291 291 nan nan nan nan nan nan nan nan
nan nan nan nan nan nan nan nan nan nan nan nan nan nan nan nan nan nan nan nan nan nan nan nan nan nan nan nan nan 259 nan nan nan nan nan nan nan nan nan nan 233 234 229 224 224 227 229 223 222 223 225 227 227 234 242 245 247 249 250 252 256 257 258 259 257 260 262 263 265 267 269 273 277 279 283 288 292 nan nan nan nan nan nan nan nan 297 298
nan nan nan nan nan nan nan nan nan nan nan nan nan nan nan nan nan nan nan nan nan nan nan nan nan nan nan nan nan nan nan nan nan nan nan nan nan nan nan nan nan nan nan nan nan 230 229 229 225 227 230 232 230 229 232 239 244 248 253 256 256 257 257 258 261 261 262 264 265 268 270 275 278 283 288 291 290 289 289 289 nan nan nan nan 296 297 302
nan nan nan nan nan nan nan nan nan nan nan nan nan nan nan nan nan nan nan nan nan nan nan nan nan nan nan nan nan nan nan nan nan nan nan nan nan nan nan nan nan 238 nan nan nan 234 231 228 230 232 233 235 240 241 238 242 245 246 250 252 253 253 257 257 258 259 261 263 266 268 271 273 277 283 286 286 nan nan 288 289 nan nan nan nan 296 nan nan
nan nan nan nan nan nan nan nan nan nan nan nan nan nan nan nan nan nan nan nan nan nan nan nan nan nan nan nan nan nan nan nan nan nan nan nan nan nan nan nan nan nan nan nan nan nan 238 235 234 238 239 240 241 244 247 249 253 254 253 257 260 260 261 259 255 256 260 261 262 265 270 273 275 277 279 283 286 286 287 290 292 nan nan nan nan nan nan
nan nan nan nan nan nan nan nan nan nan nan nan nan nan nan nan nan nan nan nan nan nan nan nan nan nan nan nan nan nan nan nan nan nan nan nan nan nan nan nan nan 243 nan nan nan nan 236 236 232 240 245 246 245 247 249 250 252 256 254 254 258 261 263 263 261 257 261 263 264 269 274 279 280 284 288 286 285 286 288 288 290 nan nan nan nan nan nan
nan nan nan nan nan nan nan nan nan nan nan nan nan nan nan nan nan nan nan nan nan nan nan nan nan nan nan nan nan nan nan nan nan nan nan nan nan nan nan nan nan 245 nan nan nan 247 248 248 242 241 247 253 253 251 250 256 260 nan nan 258 nan 260 261 264 265 265 263 265 268 272 276 277 279 279 279 282 284 286 286 289 291 nan nan nan nan nan nan
nan nan nan nan nan nan nan nan nan nan nan nan nan nan nan nan nan nan nan nan nan nan nan nan nan nan nan nan nan nan nan nan nan nan nan nan nan nan nan nan nan nan nan nan nan 255 nan 257 253 255 256 257 255 253 250 254 262 266 265 263 259 260 262 267 273 272 269 269 271 272 274 275 275 275 nan nan nan nan nan nan nan nan nan nan nan nan nan
nan nan nan nan nan nan nan nan nan nan nan nan nan nan nan nan nan nan nan nan nan nan nan nan nan nan nan nan nan nan nan nan nan nan nan nan nan nan nan nan nan nan nan nan nan nan 256 260 261 260 260 259 257 256 251 253 261 261 262 264 263 261 256 244 246 262 270 268 269 273 273 272 273 275 277 nan nan nan nan nan nan nan nan nan nan nan nan
nan nan nan nan nan nan nan nan nan nan nan nan nan nan nan nan nan nan nan nan nan nan nan nan nan nan nan nan nan nan nan nan nan nan nan nan nan nan nan nan nan nan 250 253 258 259 258 254 257 258 256 255 253 251 250 253 255 255 257 256 257 261 261 254 254 260 264 267 266 269 271 274 274 nan nan nan nan nan nan nan nan nan nan nan nan nan nan
nan nan nan nan nan nan nan nan nan nan nan nan nan nan nan nan nan nan nan nan nan 250 253 nan nan nan nan nan nan nan nan nan nan nan nan nan nan nan nan nan nan nan 251 254 258 259 256 256 254 nan nan nan nan 241 242 241 246 247 249 255 263 264 265 267 264 266 273 272 270 271 275 nan nan nan nan nan nan nan nan nan nan nan nan nan nan nan nan
nan nan nan nan nan nan nan nan nan nan nan nan nan nan nan nan nan nan nan nan nan nan nan 262 266 nan nan nan nan nan nan nan nan nan nan nan nan nan nan nan 255 255 252 nan nan nan nan nan nan 247 nan nan 239 235 236 244 249 251 252 251 257 264 267 266 269 271 269 268 271 271 nan nan nan nan nan nan nan nan nan nan nan nan nan nan nan nan nan
nan nan nan nan nan nan nan nan nan nan nan nan nan nan nan nan nan nan nan nan nan nan nan nan 262 264 nan nan nan nan nan nan nan nan nan nan nan 264 264 nan 251 251 249 250 nan nan nan nan nan nan nan nan 240 234 235 243 255 257 255 253 255 258 260 261 261 262 265 271 271 nan nan nan nan nan nan nan nan nan nan nan nan nan nan nan nan nan nan
nan nan nan nan nan nan nan nan nan nan nan nan nan nan nan nan nan nan nan nan nan nan nan nan nan nan nan nan nan nan 266 267 nan nan nan nan nan nan nan nan nan 246 245 247 nan nan nan nan nan nan nan 235 236 237 nan nan nan nan nan nan 259 260 262 260 260 261 259 259 267 nan nan nan nan nan nan nan nan nan nan nan nan nan nan nan nan nan nan
nan nan nan nan nan nan nan nan nan nan nan nan nan nan nan nan nan nan nan nan nan nan nan nan nan nan nan nan nan 257 260 nan nan nan nan nan nan nan nan 252 252 252 247 245 nan nan nan nan nan nan nan 239 240 241 nan nan nan nan nan nan nan nan nan nan nan nan nan nan nan nan nan nan nan nan nan nan nan nan nan nan nan nan nan nan nan nan nan
234 229 223 220 224 nan nan nan nan nan nan nan nan nan nan nan nan nan nan nan nan nan nan nan nan nan nan nan nan nan nan nan nan nan nan nan nan nan nan nan nan nan nan 247 251 251 nan nan nan nan nan 240 242 nan nan nan nan nan 261 266 268 nan nan nan nan nan nan nan nan nan nan nan nan nan nan nan nan nan nan nan nan nan nan nan nan nan nan
222 220 nan nan 213 226 232 232 233 nan nan nan nan nan nan nan nan nan nan nan nan nan nan nan nan nan nan nan nan nan nan nan nan nan nan nan nan 255 252 nan nan nan 245 254 253 251 255 254 253 nan nan 243 243 nan nan nan nan nan nan nan nan nan nan nan nan nan nan nan nan nan nan nan nan nan nan nan nan nan nan nan nan nan nan nan nan nan nan
nan nan nan nan nan nan nan nan nan nan nan nan nan nan nan 249 nan nan nan nan nan nan nan nan nan nan nan nan nan nan nan nan nan nan nan nan nan nan nan nan nan nan nan nan 247 250 249 251 nan nan nan 246 251 nan nan nan nan nan nan nan nan nan nan nan nan nan nan nan nan nan nan nan nan nan nan nan nan nan nan nan nan nan nan nan nan nan nan
223 231 235 237 nan nan 240 241 nan nan nan nan nan nan nan nan nan nan nan nan nan nan nan nan nan nan nan nan nan nan nan nan nan nan nan nan nan nan nan nan nan nan nan nan nan nan 255 nan nan nan 245 248 252 nan nan nan nan nan nan nan nan nan nan nan nan nan nan nan nan nan nan nan nan nan nan nan nan nan nan nan nan nan nan nan nan nan nan
nan nan nan nan 243 245 nan nan nan 249 nan nan nan nan nan nan nan nan nan nan nan nan nan nan nan nan nan nan nan nan nan nan nan nan nan nan nan nan nan nan nan nan nan nan nan nan 249 249 246 245 247 253 255 nan nan nan nan nan nan nan nan nan nan nan nan nan nan nan nan nan nan nan nan nan nan nan nan nan nan nan nan nan nan nan nan nan nan
257 260 nan nan 248 251 253 255 253 251 nan 253 nan nan nan nan nan nan nan nan nan nan nan nan nan nan nan nan nan nan nan nan nan nan nan nan nan nan nan nan nan nan nan nan nan nan nan nan nan nan nan nan nan nan nan nan nan nan nan nan nan nan nan nan nan nan nan nan nan nan nan nan nan nan nan nan nan nan nan nan nan nan nan nan nan nan nan
264 265 266 nan nan nan nan nan nan nan nan nan nan nan nan nan nan nan nan nan nan nan nan nan nan nan nan nan nan nan nan nan nan nan nan nan nan nan nan nan nan nan nan nan nan nan nan nan nan nan nan nan nan nan nan nan nan nan nan nan nan nan nan nan nan nan nan nan nan nan nan nan nan nan nan nan nan nan nan nan nan nan nan nan nan nan nan